Time,TemperatureF,DewpointF,PressureIn,WindDirection,WindDirectionDegrees,WindSpeedMPH,WindSpeedGustMPH,Humidity,HourlyPrecipIn,Conditions,Clouds,dailyrainin,SolarRadiationWatts/m^2,SoftwareType,DateUTC
2013-02-20 00:12:00,64.1,57.0,29.95,ESE,105,10.0,-999.0,78,-99.99,,,0.00,0,weatherlink.com 1.10,2013-02-20 06:12:00,
2013-02-20 00:27:00,64.0,58.0,29.96,ESE,113,3.0,-999.0,80,-99.99,,,0.00,0,weatherlink.com 1.10,2013-02-20 06:27:00,
2013-02-20 00:42:00,63.9,58.0,29.96,ESE,106,10.0,-999.0,82,-99.99,,,0.00,0,weatherlink.com 1.10,2013-02-20 06:42:00,
2013-02-20 00:57:00,63.9,58.0,29.96,ESE,103,3.0,-999.0,82,-99.99,,,0.00,0,weatherlink.com 1.10,2013-02-20 06:57:00,
2013-02-20 01:12:00,63.9,58.0,29.96,SE,134,5.0,-999.0,82,-99.99,,,0.00,0,weatherlink.com 1.10,2013-02-20 07:12:00,
2013-02-20 01:27:00,63.6,59.0,29.97,East,99,1.0,-999.0,84,-99.99,,,0.00,0,weatherlink.com 1.10,2013-02-20 07:27:00,
2013-02-20 01:42:00,63.5,59.0,29.96,ESE,105,0.0,-999.0,85,-99.99,,,0.00,0,weatherlink.com 1.10,2013-02-20 07:42:00,
2013-02-20 01:57:00,64.0,60.0,29.95,ESE,111,1.0,-999.0,85,-99.99,,,0.00,0,weatherlink.com 1.10,2013-02-20 07:57:00,
2013-02-20 02:12:00,64.5,60.0,29.95,ESE,109,3.0,-999.0,84,-99.99,,,0.00,0,weatherlink.com 1.10,2013-02-20 08:12:00,
2013-02-20 02:27:00,64.6,60.0,29.95,East,81,3.0,-999.0,84,-99.99,,,0.00,0,weatherlink.com 1.10,2013-02-20 08:27:00,
2013-02-20 02:42:00,65.0,60.0,29.96,East,94,2.0,-999.0,84,-99.99,,,0.00,0,weatherlink.com 1.10,2013-02-20 08:42:00,
2013-02-20 02:57:00,65.2,60.0,29.95,ENE,67,3.0,-999.0,84,-99.99,,,0.00,0,weatherlink.com 1.10,2013-02-20 08:57:00,
2013-02-20 03:12:00,65.3,60.0,29.95,ESE,122,3.0,-999.0,84,-99.99,,,0.00,0,weatherlink.com 1.10,2013-02-20 09:12:00,
2013-02-20 03:27:00,65.4,61.0,29.95,East,84,3.0,-999.0,84,-99.99,,,0.00,0,weatherlink.com 1.10,2013-02-20 09:27:00,
2013-02-20 03:57:00,65.2,60.0,29.95,ENE,60,6.0,-999.0,84,-99.99,,,0.00,0,weatherlink.com 1.10,2013-02-20 09:57:00,
2013-02-20 04:12:00,65.0,60.0,29.94,ENE,58,4.0,-999.0,85,-99.99,,,0.00,0,weatherlink.com 1.10,2013-02-20 10:12:00,
2013-02-20 04:27:00,64.9,61.0,29.94,ENE,61,2.0,-999.0,86,-99.99,,,0.00,0,weatherlink.com 1.10,2013-02-20 10:27:00,
2013-02-20 04:42:00,65.0,61.0,29.93,ENE,69,2.0,-999.0,86,-99.99,,,0.00,0,weatherlink.com 1.10,2013-02-20 10:42:00,
2013-02-20 04:57:00,65.0,61.0,29.93,East,82,5.0,-999.0,86,-99.99,,,0.00,0,weatherlink.com 1.10,2013-02-20 10:57:00,
2013-02-20 05:12:00,65.1,61.0,29.92,East,86,3.0,-999.0,87,-99.99,,,0.00,0,weatherlink.com 1.10,2013-02-20 11:12:00,
2013-02-20 05:27:00,65.2,61.0,29.92,ENE,67,3.0,-999.0,87,-99.99,,,0.00,0,weatherlink.com 1.10,2013-02-20 11:27:00,
2013-02-20 05:42:00,65.3,62.0,29.92,SE,127,4.0,-999.0,88,-99.99,,,0.00,0,weatherlink.com 1.10,2013-02-20 11:42:00,
2013-02-20 05:57:00,65.2,62.0,29.90,East,88,4.0,-999.0,88,-99.99,,,0.00,0,weatherlink.com 1.10,2013-02-20 11:57:00,
2013-02-20 06:12:00,65.4,62.0,29.90,ENE,63,6.0,-999.0,89,-99.99,,,0.00,0,weatherlink.com 1.10,2013-02-20 12:12:00,
2013-02-20 06:27:00,65.6,62.0,29.90,SE,146,7.0,-999.0,89,-99.99,,,0.00,0,weatherlink.com 1.10,2013-02-20 12:27:00,
2013-02-20 06:42:00,65.9,63.0,29.89,ENE,71,5.0,-999.0,89,-99.99,,,0.00,0,weatherlink.com 1.10,2013-02-20 12:42:00,
2013-02-20 06:58:00,66.2,63.0,29.89,East,79,4.0,-999.0,90,-99.99,,,0.00,0,weatherlink.com 1.10,2013-02-20 12:58:00,
2013-02-20 07:12:00,66.6,64.0,29.89,East,99,9.0,-999.0,90,-99.99,,,0.00,0,weatherlink.com 1.10,2013-02-20 13:12:00,
2013-02-20 07:27:00,66.7,64.0,29.91,SE,125,3.0,-999.0,90,-99.99,,,0.00,5,weatherlink.com 1.10,2013-02-20 13:27:00,
2013-02-20 07:42:00,67.0,64.0,29.91,ENE,65,9.0,-999.0,90,-99.99,,,0.00,18,weatherlink.com 1.10,2013-02-20 13:42:00,
2013-02-20 07:57:00,67.2,64.0,29.90,ESE,122,3.0,-999.0,90,-99.99,,,0.00,23,weatherlink.com 1.10,2013-02-20 13:57:00,
2013-02-20 08:12:00,67.4,65.0,29.90,SE,138,4.0,-999.0,91,-99.99,,,0.00,35,weatherlink.com 1.10,2013-02-20 14:12:00,
2013-02-20 08:27:00,67.5,65.0,29.90,SSE,159,5.0,-999.0,91,-99.99,,,0.00,33,weatherlink.com 1.10,2013-02-20 14:27:00,
2013-02-20 08:42:00,67.6,65.0,29.91,ESE,107,4.0,-999.0,91,-99.99,,,0.00,44,weatherlink.com 1.10,2013-02-20 14:42:00,
2013-02-20 08:57:00,67.9,65.0,29.91,ESE,123,5.0,-999.0,91,-99.99,,,0.00,56,weatherlink.com 1.10,2013-02-20 14:57:00,
2013-02-20 09:12:00,68.4,66.0,29.89,East,98,4.0,-999.0,91,-99.99,,,0.00,90,weatherlink.com 1.10,2013-02-20 15:12:00,
2013-02-20 09:28:00,68.9,66.0,29.90,ESE,123,3.0,-999.0,91,-99.99,,,0.00,116,weatherlink.com 1.10,2013-02-20 15:28:00,
2013-02-20 09:43:00,69.3,66.0,29.88,SSE,155,3.0,-999.0,90,-99.99,,,0.00,95,weatherlink.com 1.10,2013-02-20 15:43:00,
2013-02-20 09:58:00,69.8,67.0,29.88,SE,138,7.0,-999.0,89,-99.99,,,0.00,67,weatherlink.com 1.10,2013-02-20 15:58:00,
2013-02-20 10:13:00,69.9,67.0,29.87,SSE,165,5.0,-999.0,90,-99.99,,,0.00,148,weatherlink.com 1.10,2013-02-20 16:13:00,
2013-02-20 10:28:00,70.7,67.0,29.86,South,184,5.0,-999.0,89,-99.99,,,0.00,248,weatherlink.com 1.10,2013-02-20 16:28:00,
2013-02-20 10:43:00,71.1,67.0,29.85,NW,318,4.0,-999.0,88,-99.99,,,0.00,255,weatherlink.com 1.10,2013-02-20 16:43:00,
2013-02-20 10:58:00,71.2,67.0,29.86,ESE,121,2.0,-999.0,87,-99.99,,,0.00,97,weatherlink.com 1.10,2013-02-20 16:58:00,
2013-02-20 11:13:00,71.1,67.0,29.85,SE,141,10.0,-999.0,87,-99.99,,,0.00,162,weatherlink.com 1.10,2013-02-20 17:13:00,
2013-02-20 11:28:00,71.3,67.0,29.86,SSE,157,9.0,-999.0,86,-99.99,,,0.00,105,weatherlink.com 1.10,2013-02-20 17:28:00,
2013-02-20 11:43:00,71.4,67.0,29.85,South,182,13.0,-999.0,87,-99.99,,,0.00,179,weatherlink.com 1.10,2013-02-20 17:43:00,
2013-02-20 11:58:00,71.7,68.0,29.85,ESE,110,2.0,-999.0,87,-99.99,,,0.00,185,weatherlink.com 1.10,2013-02-20 17:58:00,
2013-02-20 12:13:00,72.2,68.0,29.84,ESE,111,12.0,-999.0,86,-99.99,,,0.00,255,weatherlink.com 1.10,2013-02-20 18:13:00,
2013-02-20 12:28:00,72.3,68.0,29.83,SSE,163,10.0,-999.0,86,-99.99,,,0.00,225,weatherlink.com 1.10,2013-02-20 18:28:00,
2013-02-20 12:43:00,73.0,68.0,29.81,SSE,160,7.0,-999.0,85,-99.99,,,0.00,345,weatherlink.com 1.10,2013-02-20 18:43:00,
2013-02-20 12:58:00,73.1,68.0,29.80,SSE,166,9.0,-999.0,84,-99.99,,,0.00,306,weatherlink.com 1.10,2013-02-20 18:58:00,
2013-02-20 13:13:00,73.1,68.0,29.80,SSE,157,11.0,-999.0,84,-99.99,,,0.00,199,weatherlink.com 1.10,2013-02-20 19:13:00,
2013-02-20 13:28:00,72.5,68.0,29.79,South,184,5.0,-999.0,85,-99.99,,,0.00,79,weatherlink.com 1.10,2013-02-20 19:28:00,
2013-02-20 13:43:00,71.9,68.0,29.79,SE,143,3.0,-999.0,86,-99.99,,,0.00,121,weatherlink.com 1.10,2013-02-20 19:43:00,
2013-02-20 13:58:00,71.9,68.0,29.77,SSE,168,4.0,-999.0,87,-99.99,,,0.00,223,weatherlink.com 1.10,2013-02-20 19:58:00,
2013-02-20 14:13:00,72.1,68.0,29.77,East,82,10.0,-999.0,86,-99.99,,,0.00,179,weatherlink.com 1.10,2013-02-20 20:13:00,
2013-02-20 14:28:00,72.1,68.0,29.75,East,86,2.0,-999.0,86,-99.99,,,0.00,211,weatherlink.com 1.10,2013-02-20 20:28:00,
2013-02-20 14:43:00,72.1,68.0,29.75,SE,137,5.0,-999.0,86,-99.99,,,0.00,244,weatherlink.com 1.10,2013-02-20 20:43:00,
2013-02-20 14:58:00,72.5,68.0,29.74,SE,146,7.0,-999.0,86,-99.99,,,0.00,199,weatherlink.com 1.10,2013-02-20 20:58:00,
2013-02-20 15:13:00,72.5,68.0,29.73,South,175,3.0,-999.0,86,-99.99,,,0.00,258,weatherlink.com 1.10,2013-02-20 21:13:00,
2013-02-20 15:28:00,72.6,68.0,29.73,SSE,159,8.0,-999.0,86,-99.99,,,0.00,176,weatherlink.com 1.10,2013-02-20 21:28:00,
2013-02-20 15:43:00,72.2,68.0,29.73,SSE,162,11.0,-999.0,86,-99.99,,,0.00,135,weatherlink.com 1.10,2013-02-20 21:43:00,
2013-02-20 15:59:00,71.9,68.0,29.71,SSE,158,7.0,-999.0,87,-99.99,,,0.00,155,weatherlink.com 1.10,2013-02-20 21:59:00,
2013-02-20 16:14:00,71.9,68.0,29.70,SE,138,8.0,-999.0,87,-99.99,,,0.00,188,weatherlink.com 1.10,2013-02-20 22:14:00,
2013-02-20 16:29:00,72.1,68.0,29.70,SSE,161,6.0,-999.0,87,-99.99,,,0.00,160,weatherlink.com 1.10,2013-02-20 22:29:00,
2013-02-20 16:44:00,71.9,68.0,29.70,ENE,77,10.0,-999.0,87,-99.99,,,0.00,156,weatherlink.com 1.10,2013-02-20 22:44:00,
2013-02-20 16:59:00,71.3,68.0,29.70,SE,139,5.0,-999.0,88,-99.99,,,0.00,125,weatherlink.com 1.10,2013-02-20 22:59:00,
2013-02-20 17:14:00,70.9,68.0,29.69,SSE,155,4.0,-999.0,89,-99.99,,,0.00,93,weatherlink.com 1.10,2013-02-20 23:14:00,
2013-02-20 17:29:00,70.6,67.0,29.69,ESE,117,4.0,-999.0,89,-99.99,,,0.00,79,weatherlink.com 1.10,2013-02-20 23:29:00,
2013-02-20 17:44:00,70.3,67.0,29.68,ESE,103,5.0,-999.0,90,-99.99,,,0.00,54,weatherlink.com 1.10,2013-02-20 23:44:00,
2013-02-20 17:59:00,69.9,67.0,29.68,SSE,148,6.0,-999.0,91,-99.99,,,0.00,42,weatherlink.com 1.10,2013-02-20 23:59:00,
2013-02-20 18:14:00,69.6,67.0,29.68,ESE,107,10.0,-999.0,91,-99.99,,,0.00,11,weatherlink.com 1.10,2013-02-21 00:14:00,
2013-02-20 18:29:00,69.5,67.0,29.69,SSW,192,4.0,-999.0,92,-99.99,,,0.00,7,weatherlink.com 1.10,2013-02-21 00:29:00,
2013-02-20 18:44:00,69.4,67.0,29.69,ESE,122,5.0,-999.0,92,-99.99,,,0.00,0,weatherlink.com 1.10,2013-02-21 00:44:00,
2013-02-20 18:59:00,69.2,67.0,29.68,East,92,4.0,-999.0,92,-99.99,,,0.00,0,weatherlink.com 1.10,2013-02-21 00:59:00,
2013-02-20 19:14:00,69.2,67.0,29.68,South,178,3.0,-999.0,93,-99.99,,,0.00,0,weatherlink.com 1.10,2013-02-21 01:14:00,
2013-02-20 19:29:00,69.0,67.0,29.68,SE,144,8.0,-999.0,93,-99.99,,,0.00,0,weatherlink.com 1.10,2013-02-21 01:29:00,
2013-02-20 19:44:00,69.0,67.0,29.68,SE,131,4.0,-999.0,93,-99.99,,,0.00,0,weatherlink.com 1.10,2013-02-21 01:44:00,
2013-02-20 19:59:00,68.9,67.0,29.67,SE,130,8.0,-999.0,93,-99.99,,,0.00,0,weatherlink.com 1.10,2013-02-21 01:59:00,
2013-02-20 20:14:00,69.1,67.0,29.68,ESE,115,7.0,-999.0,93,-99.99,,,0.00,0,weatherlink.com 1.10,2013-02-21 02:14:00,
2013-02-20 20:29:00,69.0,67.0,29.68,ESE,121,10.0,-999.0,93,-99.99,,,0.00,0,weatherlink.com 1.10,2013-02-21 02:29:00,
2013-02-20 20:44:00,68.9,67.0,29.68,SE,127,5.0,-999.0,93,-99.99,,,0.00,0,weatherlink.com 1.10,2013-02-21 02:44:00,
2013-02-20 20:59:00,68.9,67.0,29.67,East,86,4.0,-999.0,93,-99.99,,,0.00,0,weatherlink.com 1.10,2013-02-21 02:59:00,
2013-02-20 21:14:00,68.9,67.0,29.67,SSE,157,6.0,-999.0,93,-99.99,,,0.00,0,weatherlink.com 1.10,2013-02-21 03:14:00,
2013-02-20 21:29:00,68.9,67.0,29.67,SE,141,10.0,-999.0,93,-99.99,,,0.00,0,weatherlink.com 1.10,2013-02-21 03:29:00,
2013-02-20 21:44:00,68.9,67.0,29.67,ENE,57,2.0,-999.0,93,-99.99,,,0.00,0,weatherlink.com 1.10,2013-02-21 03:44:00,
2013-02-20 21:59:00,68.7,67.0,29.67,SE,146,5.0,-999.0,94,-99.99,,,0.00,0,weatherlink.com 1.10,2013-02-21 03:59:00,
2013-02-20 22:14:00,68.9,67.0,29.66,SSE,153,2.0,-999.0,93,-99.99,,,0.00,0,weatherlink.com 1.10,2013-02-21 04:14:00,
2013-02-20 22:29:00,68.9,67.0,29.66,South,176,3.0,-999.0,93,-99.99,,,0.00,0,weatherlink.com 1.10,2013-02-21 04:29:00,
2013-02-20 22:44:00,69.0,67.0,29.66,SSE,150,4.0,-999.0,93,-99.99,,,0.00,0,weatherlink.com 1.10,2013-02-21 04:44:00,
2013-02-20 22:59:00,69.2,67.0,29.64,SSE,167,10.0,-999.0,93,-99.99,,,0.00,0,weatherlink.com 1.10,2013-02-21 04:59:00,
2013-02-20 23:14:00,69.4,67.0,29.63,ESE,121,6.0,-999.0,93,-99.99,,,0.00,0,weatherlink.com 1.10,2013-02-21 05:14:00,
2013-02-20 23:29:00,69.5,68.0,29.63,ENE,69,5.0,-999.0,93,-99.99,,,0.00,0,weatherlink.com 1.10,2013-02-21 05:29:00,
2013-02-20 23:44:00,69.3,67.0,29.63,ENE,59,2.0,-999.0,93,-99.99,,,0.00,0,weatherlink.com 1.10,2013-02-21 05:44:00,
2013-02-20 23:59:00,69.4,68.0,29.63,SE,144,2.0,-999.0,94,-99.99,,,0.00,0,weatherlink.com 1.10,2013-02-21 05:59:00,